Date String (YYYY-MM-DD hh:mm:ss) UTC,Instrument flags,Ambient pressure (hPa),Sample flow (lpm),Bypass flow (lpm),Sample temperature (°C),Ambient temperature (°C),ASC tube jacket temperature (°C),LED temperature (°C),Box temperature (°C),Sample RH (%),Span deviation,Mass concentration (μg/m³),Mass concentration (μg/m³),Mass concentration (μg/m³)
DateTimeUTC,F1_M11,P_M11,Q1_M11,Q2_M11,T1_M11,T2_M11,T3_M11,T4_M11,T5_M11,U1_M11,ZSPAN_M11,X0_M11,X2_M11,X1_M11
2023-03-03 13:00:00,,0814.0,5.00,0.00,22.5,20.8,00.0,31.3,24.1,11.1,-000.3,0013.30,0007.90,0007.48
2023-03-03 13:01:00,,0814.1,5.01,0.00,22.4,20.8,00.0,31.3,24.1,12.0,-000.8,0013.49,0008.04,0007.59
2023-03-03 13:02:00,,0814.1,5.01,0.00,22.4,20.8,00.0,31.2,24.1,12.2,-001.5,0013.81,0008.22,0007.75
2023-03-03 13:03:00,,0814.2,5.00,0.00,22.4,20.7,00.0,31.2,24.0,12.3,-001.4,0014.03,0008.22,0007.77
2023-03-03 13:04:00,,0814.3,5.00,0.00,22.4,20.7,00.0,31.2,24.0,12.4,-001.4,0013.89,0008.14,0007.70
2023-03-03 13:05:00,,0814.1,4.99,0.00,22.4,20.7,00.0,31.2,24.0,12.3,-001.7,0013.18,0008.03,0007.61
2023-03-03 13:06:00,,0814.1,5.00,0.00,22.4,20.8,00.0,31.2,24.1,12.3,-001.7,0013.05,0008.07,0007.62
2023-03-03 13:07:00,,0814.2,4.99,0.00,22.4,21.9,00.0,31.2,24.3,12.6,-002.1,0013.39,0008.25,0007.80
2023-03-03 13:08:00,,0814.3,5.00,0.00,22.6,23.0,00.0,31.2,24.6,12.8,-002.1,0014.08,0008.58,0008.07
2023-03-03 13:09:00,,0814.2,4.99,0.00,22.7,23.2,00.0,31.2,24.6,13.0,-001.9,0014.66,0008.95,0008.42
2023-03-03 13:10:00,,0814.1,5.00,0.00,22.7,22.7,00.0,31.3,24.6,13.2,-001.8,0015.07,0009.50,0008.94
2023-03-03 13:11:00,,0814.2,5.01,0.00,22.7,22.3,00.0,31.3,24.5,13.3,-001.9,0015.47,0010.03,0009.45
2023-03-03 13:12:00,,0814.2,5.00,0.00,22.7,22.0,00.0,31.3,24.5,13.4,-001.8,0015.90,0010.18,0009.60
2023-03-03 13:13:00,,0814.1,5.00,0.00,22.7,21.7,00.0,31.3,24.4,13.4,-001.7,0016.39,0010.23,0009.67
2023-03-03 13:14:00,,0814.1,5.00,0.00,22.7,21.5,00.0,31.3,24.3,13.3,-001.7,0016.88,0010.30,0009.75
2023-03-03 13:15:00,,0814.1,5.00,0.00,22.6,21.4,00.0,31.3,24.3,13.3,-001.8,0017.21,0010.50,0009.95
2023-03-03 13:16:00,,0814.1,5.01,0.00,22.6,21.3,00.0,31.3,24.3,13.4,-002.0,0017.69,0010.92,0010.36
2023-03-03 13:17:00,,0814.1,5.00,0.00,22.6,21.2,00.0,31.3,24.2,13.4,-002.0,0018.18,0011.27,0010.70
2023-03-03 13:18:00,,0814.2,5.01,0.00,22.6,21.2,00.0,31.3,24.3,13.4,-001.8,0018.58,0011.51,0010.94
2023-03-03 13:19:00,,0814.3,4.99,0.00,22.6,21.1,00.0,31.3,24.3,13.4,-001.8,0018.68,0011.67,0011.11
2023-03-03 13:20:00,,0814.4,4.98,0.00,22.6,21.0,00.0,31.3,24.2,13.4,-001.8,0018.46,0011.79,0011.21
2023-03-03 13:21:00,,0814.3,4.99,0.00,22.5,20.9,00.0,31.3,24.2,13.4,-001.7,0018.66,0011.79,0011.18
2023-03-03 13:22:00,,0814.4,5.03,0.00,22.5,20.9,00.0,31.3,24.2,13.4,-001.8,0018.73,0011.69,0011.06
2023-03-03 13:23:00,,0814.3,5.00,0.00,22.5,20.8,00.0,31.3,24.2,13.4,-001.9,0018.82,0011.61,0010.95
2023-03-03 13:24:00,,0814.4,5.01,0.00,22.5,20.8,00.0,31.3,24.1,13.5,-001.9,0018.58,0011.55,0010.90
2023-03-03 13:25:00,,0814.3,5.00,0.00,22.5,20.8,00.0,31.3,24.1,13.5,-001.9,0018.75,0011.47,0010.81
2023-03-03 13:26:00,,0814.3,5.00,0.00,22.4,20.8,00.0,31.3,24.1,13.5,-001.9,0019.36,0011.51,0010.79
2023-03-03 13:27:00,,0814.3,5.00,0.00,22.4,20.7,00.0,31.2,24.1,13.6,-001.9,0019.32,0011.30,0010.58
2023-03-03 13:28:00,,0814.3,5.00,0.00,22.4,20.7,00.0,31.2,24.1,13.6,-002.0,0019.24,0011.07,0010.33
2023-03-03 13:29:00,,0814.4,5.00,0.00,22.4,20.9,00.0,31.2,24.1,13.7,-002.3,0019.28,0010.95,0010.17
2023-03-03 13:30:00,,0814.4,5.01,0.00,22.5,21.8,00.0,31.2,24.3,13.6,-002.3,0019.00,0010.76,0010.00
2023-03-03 13:31:00,,0814.4,5.01,0.00,22.6,22.9,00.0,31.2,24.6,13.6,-002.3,0018.98,0010.61,0009.83
2023-03-03 13:32:00,,0814.4,4.99,0.00,22.7,23.1,00.0,31.3,24.7,13.5,-002.3,0018.97,0010.47,0009.72
2023-03-03 13:33:00,,0814.4,5.01,0.00,22.7,22.6,00.0,31.3,24.6,13.5,-002.2,0019.12,0010.43,0009.71
2023-03-03 13:34:00,,0814.3,5.01,0.00,22.7,22.2,00.0,31.3,24.5,13.5,-001.9,0019.18,0010.52,0009.81
2023-03-03 13:35:00,,0814.4,4.98,0.00,22.7,21.9,00.0,31.3,24.5,13.6,-001.9,0019.27,0010.69,0009.99
2023-03-03 13:36:00,,0814.4,5.00,0.00,22.7,21.7,00.0,31.3,24.4,13.7,-002.1,0018.85,0010.88,0010.16
2023-03-03 13:37:00,,0814.4,4.99,0.00,22.7,21.4,00.0,31.3,24.3,13.7,-002.3,0018.68,0011.02,0010.34
2023-03-03 13:38:00,,0814.4,4.99,0.00,22.6,21.2,00.0,31.3,24.2,13.8,-002.6,0018.86,0011.13,0010.45
2023-03-03 13:39:00,,0814.4,5.01,0.00,22.6,21.1,00.0,31.3,24.2,13.9,-002.6,0019.12,0011.30,0010.60
2023-03-03 13:40:00,,0814.4,4.99,0.00,22.6,20.9,00.0,31.3,24.2,13.9,-002.3,0019.61,0011.57,0010.87
2023-03-03 13:41:00,,0814.4,4.99,0.00,22.5,20.9,00.0,31.3,24.2,13.9,-002.4,0020.23,0011.97,0011.27
2023-03-03 13:42:00,,0814.4,5.01,0.00,22.5,20.8,00.0,31.3,24.1,14.0,-002.4,0020.66,0012.38,0011.71
2023-03-03 13:43:00,,0814.4,5.00,0.00,22.5,20.8,00.0,31.3,24.2,14.0,-002.5,0021.02,0012.81,0012.14
2023-03-03 13:44:00,,0814.5,5.00,0.00,22.5,20.8,00.0,31.3,24.1,14.0,-002.7,0021.15,0013.27,0012.59
2023-03-03 13:45:00,,0814.7,5.00,0.00,22.5,20.7,00.0,31.3,24.1,14.0,-002.9,0021.70,0013.61,0012.94
2023-03-03 13:46:00,,0814.5,4.99,0.00,22.4,20.7,00.0,31.3,24.1,14.0,-003.0,0021.82,0013.89,0013.20
2023-03-03 13:47:00,,0814.9,4.98,0.00,22.4,20.6,00.0,31.2,24.1,14.0,-002.8,0022.47,0014.17,0013.47
2023-03-03 13:48:00,,0815.1,5.00,0.00,22.4,20.5,00.0,31.2,24.1,14.1,-002.7,0022.26,0014.35,0013.69
2023-03-03 13:49:00,,0815.0,5.01,0.00,22.4,20.5,00.0,31.2,24.0,14.1,-002.6,0021.98,0014.48,0013.85
2023-03-03 13:50:00,,0815.0,5.03,0.00,22.4,21.4,00.0,31.2,24.2,14.0,-002.5,0021.83,0014.59,0013.98
2023-03-03 13:51:00,,0815.0,4.99,0.00,22.5,22.6,00.0,31.2,24.4,14.0,-002.5,0021.23,0014.54,0013.96
2023-03-03 13:52:00,,0815.1,5.00,0.00,22.6,23.0,00.0,31.2,24.5,13.8,-002.5,0021.07,0014.43,0013.87
2023-03-03 13:53:00,,0815.2,5.00,0.00,22.6,22.6,00.0,31.2,24.5,13.8,-002.4,0020.83,0014.33,0013.75
2023-03-03 13:54:00,,0815.0,5.01,0.00,22.6,22.1,00.0,31.3,24.4,13.8,-002.4,0020.52,0014.19,0013.63
2023-03-03 13:55:00,,0815.0,5.01,0.00,22.6,21.7,00.0,31.3,24.3,13.7,-002.3,0020.46,0014.07,0013.50
2023-03-03 13:56:00,,0814.7,4.99,0.00,22.6,21.4,00.0,31.3,24.2,13.7,-002.0,0020.33,0013.95,0013.38
2023-03-03 13:57:00,,0814.7,5.00,0.00,22.5,21.1,00.0,31.3,24.1,13.7,-001.6,0020.56,0013.77,0013.21
2023-03-03 13:58:00,,0814.8,5.01,0.00,22.5,20.9,00.0,31.3,24.0,13.7,-001.5,0020.11,0013.56,0012.97
2023-03-03 13:59:00,,0814.8,5.00,0.00,22.5,20.8,00.0,31.3,24.0,13.6,-001.4,0019.65,0013.36,0012.75
